EZY536F EGJJ-EGAA

Flight info

Callsign EZY536F
Flight time 1h 0m
Altitude 24000
Route SKERY L22 EMWIP P16 FIMCA/N0444F360 DCT TOJAQ DCT UNFIT DCT PENWU DCT NICXI DCT VATRY DCT DUB/N0392F230 N34 BELZU
Aircraft A319/M-SDE3FGHIRWY/LB1

Departure

Time 2026-05-06 14:07
Airport Jersey Airport (EGJJ)

Arrival

Time 2026-05-06 15:07
Airport Belfast International Airport (EGAA)
Time Latitude Longitude Altitude Speed Heading
2026-05-06 14:06 49.38698 -2.28546 11890 ft 332 kts 306°
2026-05-06 14:07 49.40164 -2.31322 12684 ft 336 kts 312°
2026-05-06 14:07 49.41844 -2.33854 13474 ft 340 kts 317°
2026-05-06 14:07 49.43649 -2.36245 14197 ft 344 kts 319°
2026-05-06 14:07 49.45514 -2.38592 14883 ft 348 kts 320°
2026-05-06 14:08 49.47396 -2.40954 15578 ft 351 kts 320°
2026-05-06 14:08 49.49299 -2.43344 16303 ft 355 kts 320°
2026-05-06 14:08 49.51225 -2.45755 17031 ft 359 kts 320°
2026-05-06 14:08 49.53170 -2.48192 17719 ft 362 kts 320°
2026-05-06 14:09 49.55113 -2.50620 18359 ft 366 kts 319°
2026-05-06 14:09 49.57101 -2.53100 18942 ft 369 kts 320°
2026-05-06 14:09 49.59108 -2.55604 19545 ft 372 kts 320°
2026-05-06 14:09 49.61127 -2.58132 20128 ft 375 kts 320°
2026-05-06 14:10 49.63164 -2.60686 20721 ft 378 kts 320°
2026-05-06 14:10 49.65213 -2.63265 21301 ft 382 kts 320°
2026-05-06 14:10 49.67280 -2.65873 21891 ft 385 kts 320°
2026-05-06 14:10 49.69338 -2.68466 22473 ft 387 kts 320°
2026-05-06 14:11 49.71432 -2.71114 23031 ft 391 kts 319°
2026-05-06 14:11 49.73496 -2.73860 23633 ft 391 kts 314°
2026-05-06 14:11 49.75431 -2.76835 24095 ft 393 kts 313°
2026-05-06 14:11 49.77335 -2.79910 24527 ft 396 kts 312°
2026-05-06 14:12 49.79201 -2.83003 24964 ft 398 kts 311°
2026-05-06 14:12 49.81091 -2.86162 25448 ft 400 kts 312°
2026-05-06 14:12 49.83001 -2.89347 25814 ft 404 kts 312°
2026-05-06 14:12 49.84929 -2.92543 26245 ft 407 kts 312°
2026-05-06 14:13 49.86877 -2.95749 26643 ft 410 kts 313°
2026-05-06 14:13 49.88847 -2.98975 27105 ft 412 kts 313°
2026-05-06 14:13 49.90822 -3.02201 27597 ft 413 kts 313°
2026-05-06 14:13 49.92785 -3.05409 27928 ft 417 kts 313°
2026-05-06 14:14 49.94810 -3.08729 28359 ft 419 kts 313°
2026-05-06 14:14 49.96793 -3.11995 28818 ft 420 kts 312°
2026-05-06 14:14 49.98805 -3.15325 29236 ft 422 kts 311°
2026-05-06 14:14 50.00613 -3.18931 29556 ft 425 kts 302°
2026-05-06 14:15 50.02132 -3.22883 29916 ft 428 kts 300°
2026-05-06 14:15 50.03705 -3.26833 30235 ft 430 kts 305°
2026-05-06 14:15 50.05614 -3.30375 30521 ft 434 kts 314°
2026-05-06 14:15 50.07906 -3.33445 30824 ft 437 kts 323°
2026-05-06 14:16 50.10509 -3.35916 31140 ft 440 kts 332°
2026-05-06 14:16 50.13250 -3.38106 31425 ft 443 kts 331°
2026-05-06 14:16 50.15994 -3.40301 31812 ft 442 kts 331°
2026-05-06 14:16 50.18726 -3.42497 32207 ft 442 kts 331°
2026-05-06 14:17 50.21461 -3.44702 32611 ft 441 kts 331°
2026-05-06 14:17 50.24149 -3.46875 33047 ft 440 kts 331°
2026-05-06 14:17 50.26868 -3.49081 33475 ft 439 kts 331°
2026-05-06 14:17 50.29588 -3.51289 33917 ft 437 kts 331°
2026-05-06 14:18 50.32255 -3.53456 34277 ft 437 kts 331°
2026-05-06 14:18 50.34952 -3.55650 34611 ft 436 kts 331°
2026-05-06 14:18 50.37656 -3.57849 34939 ft 437 kts 330°
2026-05-06 14:18 50.40358 -3.60047 35233 ft 437 kts 330°
2026-05-06 14:19 50.43061 -3.62254 35525 ft 437 kts 330°
2026-05-06 14:19 50.45732 -3.64440 35802 ft 438 kts 330°
2026-05-06 14:19 50.48448 -3.66655 35974 ft 439 kts 331°
2026-05-06 14:19 50.51193 -3.68735 36008 ft 437 kts 333°
2026-05-06 14:20 50.56745 -3.72478 36003 ft 436 kts 335°
2026-05-06 14:20 50.62360 -3.76116 36003 ft 435 kts 335°
2026-05-06 14:21 50.67937 -3.79854 36002 ft 435 kts 334°
2026-05-06 14:21 50.73484 -3.83675 35997 ft 434 kts 334°
2026-05-06 14:22 50.78988 -3.87492 35998 ft 434 kts 334°
2026-05-06 14:22 50.84540 -3.91314 36008 ft 434 kts 334°
2026-05-06 14:23 50.90093 -3.95135 36008 ft 434 kts 334°
2026-05-06 14:23 50.95601 -3.98938 36002 ft 434 kts 334°
2026-05-06 14:24 51.01137 -4.02773 36000 ft 433 kts 334°
2026-05-06 14:24 51.06664 -4.06617 35993 ft 433 kts 334°
2026-05-06 14:25 51.12168 -4.10464 35999 ft 433 kts 334°
2026-05-06 14:25 51.16764 -4.13671 35998 ft 433 kts 334°
2026-05-06 14:26 51.23199 -4.18180 35995 ft 434 kts 334°
2026-05-06 14:26 51.27804 -4.21410 36014 ft 434 kts 334°
2026-05-06 14:27 51.33322 -4.25293 36012 ft 434 kts 334°
2026-05-06 14:27 51.38847 -4.29204 36014 ft 434 kts 334°
2026-05-06 14:28 51.44363 -4.33134 36010 ft 433 kts 333°
2026-05-06 14:28 51.49813 -4.37258 36032 ft 433 kts 332°
2026-05-06 14:29 51.55248 -4.41474 36028 ft 432 kts 332°
2026-05-06 14:29 51.60654 -4.45642 36025 ft 431 kts 332°
2026-05-06 14:30 51.66034 -4.49778 36025 ft 431 kts 332°
2026-05-06 14:30 51.71461 -4.53958 36024 ft 431 kts 332°
2026-05-06 14:31 51.76730 -4.58551 36033 ft 428 kts 321°
2026-05-06 14:31 51.80904 -4.65235 36026 ft 424 kts 308°
2026-05-06 14:32 51.84645 -4.72581 36026 ft 425 kts 308°
2026-05-06 14:32 51.88404 -4.79965 36025 ft 425 kts 308°
2026-05-06 14:33 51.92160 -4.87371 36022 ft 424 kts 308°
2026-05-06 14:33 51.95875 -4.94729 36037 ft 424 kts 308°
2026-05-06 14:34 51.99643 -5.02111 36028 ft 424 kts 312°
2026-05-06 14:34 52.04309 -5.07953 36024 ft 428 kts 330°
2026-05-06 14:35 52.09653 -5.12271 36025 ft 428 kts 331°
2026-05-06 14:35 52.14959 -5.16595 36024 ft 429 kts 331°
2026-05-06 14:36 52.20080 -5.20780 36037 ft 429 kts 332°
2026-05-06 14:36 52.25412 -5.25141 36031 ft 428 kts 331°
2026-05-06 14:37 52.30708 -5.29498 36025 ft 428 kts 331°
2026-05-06 14:37 52.36031 -5.33896 36022 ft 428 kts 331°
2026-05-06 14:38 52.41349 -5.38295 36029 ft 428 kts 332°
2026-05-06 14:38 52.46671 -5.42708 36028 ft 428 kts 332°
2026-05-06 14:39 52.51966 -5.47099 36028 ft 428 kts 332°
2026-05-06 14:39 52.57254 -5.51503 36027 ft 428 kts 332°
2026-05-06 14:40 52.62575 -5.55934 36024 ft 428 kts 332°
2026-05-06 14:40 52.67889 -5.60383 36033 ft 427 kts 332°
2026-05-06 14:41 52.73155 -5.64814 36029 ft 427 kts 332°
2026-05-06 14:41 52.78444 -5.69276 36025 ft 427 kts 332°
2026-05-06 14:42 52.83741 -5.73733 36020 ft 427 kts 332°
2026-05-06 14:42 52.89031 -5.78210 36030 ft 427 kts 332°
2026-05-06 14:43 52.94309 -5.82696 36026 ft 426 kts 332°
2026-05-06 14:43 52.99552 -5.87163 36025 ft 426 kts 332°
2026-05-06 14:44 53.04822 -5.91667 36017 ft 425 kts 332°
2026-05-06 14:45 53.12702 -5.98421 36029 ft 425 kts 332°
2026-05-06 14:45 53.17973 -6.02952 35838 ft 425 kts 332°
2026-05-06 14:45 53.20605 -6.05217 35584 ft 423 kts 332°
2026-05-06 14:46 53.23182 -6.07439 35131 ft 423 kts 332°
2026-05-06 14:46 53.25818 -6.09718 34286 ft 427 kts 332°
2026-05-06 14:46 53.28474 -6.12020 33377 ft 431 kts 332°
2026-05-06 14:46 53.31129 -6.14323 32799 ft 425 kts 332°
2026-05-06 14:47 53.33707 -6.16556 32270 ft 420 kts 332°
2026-05-06 14:47 53.36287 -6.18792 31727 ft 414 kts 332°
2026-05-06 14:47 53.38828 -6.20997 31196 ft 409 kts 332°
2026-05-06 14:47 53.41349 -6.23192 30674 ft 405 kts 332°
2026-05-06 14:48 53.43831 -6.25359 30147 ft 401 kts 332°
2026-05-06 14:48 53.46300 -6.27516 29580 ft 396 kts 332°
2026-05-06 14:48 53.48787 -6.29296 29076 ft 392 kts 341°
2026-05-06 14:48 53.51441 -6.30280 28530 ft 389 kts 352°
2026-05-06 14:49 53.54124 -6.30436 28013 ft 386 kts
2026-05-06 14:49 53.56808 -6.30252 27497 ft 383 kts
2026-05-06 14:49 53.59459 -6.30080 26998 ft 380 kts
2026-05-06 14:49 53.62095 -6.29912 26511 ft 377 kts
2026-05-06 14:50 53.64709 -6.29747 26024 ft 375 kts
2026-05-06 14:50 53.67310 -6.29582 25559 ft 373 kts
2026-05-06 14:50 53.69902 -6.29417 25101 ft 371 kts 360°
2026-05-06 14:50 53.72448 -6.29252 24655 ft 369 kts 360°
2026-05-06 14:51 53.75007 -6.29081 24199 ft 366 kts 360°
2026-05-06 14:51 53.77545 -6.28911 23752 ft 365 kts 360°
2026-05-06 14:51 53.80074 -6.28744 23257 ft 363 kts 359°
2026-05-06 14:51 53.82588 -6.28580 22799 ft 359 kts 359°
2026-05-06 14:52 53.85074 -6.28418 22372 ft 355 kts 359°
2026-05-06 14:52 53.87509 -6.28263 21913 ft 353 kts 359°
2026-05-06 14:52 53.89953 -6.28109 21472 ft 350 kts 359°
2026-05-06 14:52 53.92378 -6.27953 21017 ft 347 kts 359°
2026-05-06 14:53 53.94781 -6.27793 20568 ft 345 kts 359°
2026-05-06 14:53 53.97177 -6.27631 20119 ft 343 kts 359°
2026-05-06 14:53 53.99562 -6.27471 19670 ft 342 kts 359°
2026-05-06 14:53 54.01936 -6.27313 19223 ft 341 kts 359°
2026-05-06 14:54 54.04301 -6.27154 18778 ft 340 kts 359°
2026-05-06 14:54 54.06650 -6.26946 18342 ft 345 kts
2026-05-06 14:54 54.08972 -6.25757 17794 ft 352 kts 21°
2026-05-06 14:54 54.11188 -6.23928 17270 ft 353 kts 24°
2026-05-06 14:55 54.13383 -6.22066 16801 ft 351 kts 24°
2026-05-06 14:55 54.15568 -6.20207 16374 ft 349 kts 24°
2026-05-06 14:55 54.17739 -6.18362 15959 ft 347 kts 24°
2026-05-06 14:55 54.19868 -6.16554 15547 ft 345 kts 24°
2026-05-06 14:56 54.22010 -6.14736 15143 ft 342 kts 24°
2026-05-06 14:56 54.24139 -6.12932 14742 ft 340 kts 24°
2026-05-06 14:56 54.26263 -6.11136 14349 ft 338 kts 24°
2026-05-06 14:56 54.28369 -6.09357 13961 ft 336 kts 24°
2026-05-06 14:57 54.30444 -6.07605 13543 ft 334 kts 24°
2026-05-06 14:57 54.32531 -6.05848 13116 ft 332 kts 24°
2026-05-06 14:57 54.34603 -6.04110 12688 ft 330 kts 24°
2026-05-06 14:57 54.36665 -6.02374 12246 ft 328 kts 24°
2026-05-06 14:58 54.38712 -6.00633 11799 ft 327 kts 24°
2026-05-06 14:58 54.40726 -5.98928 11386 ft 325 kts 24°
2026-05-06 14:58 54.42753 -5.97222 10955 ft 324 kts 24°
2026-05-06 14:58 54.44768 -5.95518 10529 ft 322 kts 24°
2026-05-06 14:59 54.46762 -5.93847 10314 ft 313 kts 24°
2026-05-06 14:59 54.48681 -5.92217 10184 ft 302 kts 24°
2026-05-06 14:59 54.50529 -5.90647 9938 ft 296 kts 24°
2026-05-06 14:59 54.52382 -5.89082 9566 ft 294 kts 23°
2026-05-06 15:00 54.54197 -5.87542 9174 ft 293 kts 24°
2026-05-06 15:00 54.56029 -5.86019 8838 ft 290 kts 23°
2026-05-06 15:00 54.57855 -5.84506 8426 ft 290 kts 23°
2026-05-06 15:00 54.59675 -5.83017 8067 ft 288 kts 24°
2026-05-06 15:01 54.61479 -5.81570 7754 ft 285 kts 24°
2026-05-06 15:01 54.63257 -5.80130 7197 ft 285 kts 24°
2026-05-06 15:01 54.65054 -5.78708 6664 ft 282 kts 20°
2026-05-06 15:01 54.66962 -5.78217 6121 ft 276 kts 351°
2026-05-06 15:02 54.68773 -5.79194 5493 ft 273 kts 331°
2026-05-06 15:02 54.70468 -5.80700 4972 ft 273 kts 329°
2026-05-06 15:02 54.72135 -5.82292 4505 ft 274 kts 326°
2026-05-06 15:02 54.73476 -5.84478 4139 ft 267 kts 305°
2026-05-06 15:03 54.74250 -5.87319 3879 ft 261 kts 279°
2026-05-06 15:03 54.74112 -5.90369 3686 ft 253 kts 247°
2026-05-06 15:03 54.73416 -5.93070 3526 ft 239 kts 239°
2026-05-06 15:03 54.72703 -5.95602 3344 ft 229 kts 240°
2026-05-06 15:04 54.72039 -5.98060 3064 ft 227 kts 240°
2026-05-06 15:04 54.71389 -6.00502 2763 ft 219 kts 240°
2026-05-06 15:04 54.70768 -6.02840 2469 ft 208 kts 240°
2026-05-06 15:04 54.70174 -6.05069 2215 ft 197 kts 239°
2026-05-06 15:05 54.69621 -6.07139 1926 ft 186 kts 240°
2026-05-06 15:05 54.69101 -6.09089 1684 ft 172 kts 239°
2026-05-06 15:05 54.68627 -6.10867 1455 ft 152 kts 239°
2026-05-06 15:05 54.68207 -6.12437 1235 ft 137 kts 237°
2026-05-06 15:06 54.67814 -6.13901 1040 ft 132 kts 239°
2026-05-06 15:06 54.67432 -6.15317 851 ft 131 kts 240°
2026-05-06 15:06 54.67047 -6.16751 699 ft 131 kts 239°
2026-05-06 15:06 54.66672 -6.18162 486 ft 129 kts 241°
2026-05-06 15:07 54.66297 -6.19576 302 ft 128 kts 238°
2026-05-06 15:07 54.65941 -6.20839 245 ft 93 kts 245°
2026-05-06 15:07 54.65772 -6.21494 240 ft 47 kts 245°
2026-05-06 15:07 54.65640 -6.21982 228 ft 43 kts 245°
2026-05-06 15:08 54.65519 -6.22428 227 ft 32 kts 246°
2026-05-06 15:08 54.65483 -6.22635 227 ft 14 kts 279°
2026-05-06 15:08 54.65563 -6.22731 223 ft 17 kts 342°
2026-05-06 15:08 54.65668 -6.22791 223 ft 12 kts 343°
2026-05-06 15:09 54.65740 -6.22729 216 ft 14 kts 71°
2026-05-06 15:09 54.65752 -6.22548 227 ft 16 kts 84°
2026-05-06 15:09 54.65764 -6.22347 226 ft 18 kts 83°
2026-05-06 15:09 54.65788 -6.22126 231 ft 20 kts 71°
2026-05-06 15:10 54.65849 -6.21887 234 ft 23 kts 65°
2026-05-06 15:10 54.65918 -6.21638 238 ft 22 kts 65°
2026-05-06 15:10 54.65981 -6.21400 241 ft 21 kts 65°
2026-05-06 15:10 54.66031 -6.21222 244 ft 9 kts 52°
2026-05-06 15:11 54.66088 -6.21231 244 ft 8 kts 310°
2026-05-06 15:11 54.66083 -6.21291 243 ft 6 kts 242°
2026-05-06 15:11 54.66074 -6.21321 242 ft 0 kts 243°